Temperature
18 18 19 19 19 19 19 19 19 19 19 19 19 19 19 19 19 19 19 19 19 19 19 19 19 19 19 19 19 19 19 19 19 19 18 18 18 18 18 18 18 19 19
19 19 18 19 19 19 19 19 19 19 19 19 19 19 19 19 19 19 19 19 19 19 19 19 19 19 19 19 19 19 19 19 19 18 18 18 18 18 18 18 18 18 18
19 19 19 19 19 19 19 19 19 19 19 19 19 19 19 19 19 19 19 19 19 19 19 19 19 19 19 19 19 19 19 19 18 18 18 18 18 18 18 18 18 18 18
19 19 19 18 18 18 18 18 18 18 18 18 18 18 18 18 18 18 18 18 18 18 18 19 19 19 19 19 19 19 19 18 18 18 18 18 18 18 18 18 18 18 18
19 19 19 18 18 18 18 18 18 18 18 18 18 18 18 18 18 18 18 18 18 18 18 18 18 18 18 18 18 18 18 18 18 18 18 18 18 18 18 18 18 18 18
19 19 18 18 18 18 18 18 18 18 18 17 17 17 17 17 17 18 18 18 18 18 18 18 18 18 18 18 18 18 18 18 18 18 18 18 18 18 18 18 18 18 18
19 19 18 18 18 18 18 17 17 17 17 17 17 17 17 17 17 17 17 17 17 17 18 18 18 18 18 18 18 18 18 18 18 18 18 18 18 18 18 18 18 18 18
19 19 18 18 18 17 17 17 17 17 17 16 16 16 16 16 17 17 17 17 17 17 17 17 18 18 18 18 18 18 18 18 18 18 18 18 18 18 18 18 18 18 18
19 19 18 18 18 17 17 17 16 16 16 16 16 16 16 16 16 16 16 16 16 17 17 17 17 17 18 18 18 18 18 18 18 18 18 18 18 18 18 18 18 18 18
19 19 18 18 17 17 17 16 16 16 16 16 15 15 15 15 16 16 16 16 16 16 16 17 17 17 17 17 17 17 18 18 18 18 18 18 18 18 18 18 18 18 18
19 18 18 18 17 17 17 16 16 16 16 15 15 15 15 15 15 15 15 15 16 16 16 16 16 17 17 17 17 17 17 17 18 18 18 18 18 18 18 18 18 18 18
19 18 18 18 17 17 17 16 16 16 15 15 15 15 15 15 15 15 15 15 15 15 16 16 16 16 16 17 17 17 17 17 17 18 18 17 18 18 18 18 18 18 18
19 19 18 18 17 17 17 16 16 16 15 15 15 15 15 15 15 15 15 15 15 15 15 15 16 16 16 16 16 17 17 17 17 17 17 17 17 17 18 18 18 18 18
19 19 18 18 18 17 17 16 16 16 15 15 15 15 15 15 15 15 15 15 15 15 15 15 15 16 16 16 16 16 17 17 17 17 17 17 17 17 18 18 18 18 18
19 19 19 18 18 17 17 16 16 15 15 15 15 15 15 15 15 15 15 15 15 15 15 15 15 15 16 16 16 16 16 17 17 17 17 17 17 17 17 18 18 18 18
20 19 19 18 18 17 16 16 16 15 15 15 15 15 15 15 14 14 14 15 15 15 15 15 15 15 15 16 16 16 16 16 16 17 17 17 17 17 17 17 18 18 18
20 19 19 18 17 17 16 16 15 15 15 15 15 14 14 14 14 14 14 14 14 15 15 15 15 15 15 15 16 16 16 16 16 16 17 17 17 17 17 17 17 18 18
20 19 19 18 17 17 16 16 15 15 15 14 14 14 14 14 14 14 14 14 14 14 14 15 15 15 15 15 15 16 16 16 16 16 16 17 17 17 17 17 17 18 18
20 19 19 18 17 17 16 15 15 15 14 14 14 14 14 14 14 14 14 14 14 14 14 14 14 15 15 15 15 15 16 16 16 16 16 17 17 17 17 17 17 17 17
20 19 19 18 17 17 16 15 15 15 14 14 14 14 14 14 13 13 13 13 14 14 14 14 14 14 15 15 15 15 16 16 16 16 16 16 16 17 17 17 17 17 17
20 19 18 18 17 17 16 15 15 14 14 14 14 14 13 13 13 13 13 13 13 13 14 14 14 14 14 15 15 15 15 15 16 16 16 16 16 16 17 17 17 17 17
20 19 19 18 17 17 16 15 15 14 14 14 14 13 13 13 13 13 13 13 13 13 13 13 14 14 14 14 15 15 15 15 15 16 16 16 16 16 16 16 17 17 17
20 20 19 18 18 17 16 15 15 14 14 14 13 13 13 13 13 13 13 13 13 13 13 13 13 14 14 14 14 15 15 15 15 15 15 16 16 16 16 16 16 17 17
20 20 19 18 18 17 16 16 15 14 14 14 14 13 13 13 13 13 13 13 13 13 13 13 13 13 14 14 14 14 14 15 15 15 15 15 15 16 16 16 16 16 17
20 20 19 18 17 17 16 16 15 14 14 14 14 13 13 13 13 13 13 13 13 13 13 13 13 13 13 14 14 14 14 14 15 15 15 15 15 16 16 16 16 16 16
20 19 19 18 18 17 16 16 15 14 14 14 14 14 13 13 13 13 13 13 13 13 13 13 13 13 13 13 14 14 14 14 14 15 15 15 15 15 15 16 16 16 16
Wind_Speed
4 6 10 9 9 8 8 8 7 7 7 7 7 6 6 6 6 6 6 6 6 6 6 6 6 6 6 6 6 5 5 5 6 5 5 5 5 6 7 8 8 7 9
8 8 11 10 9 8 7 7 6 6 6 5 5 5 4 4 4 4 4 4 4 4 4 4 4 4 4 4 4 4 4 4 4 4 3 3 3 5 6 7 8 7 9
10 9 11 10 9 7 7 6 6 5 5 4 4 3 3 3 3 3 3 2 2 2 2 2 2 3 2 3 2 2 2 2 3 3 2 1 2 5 6 7 8 8 8
11 10 10 11 9 8 7 6 5 4 4 3 3 2 2 2 1 1 1 1 1 1 1 2 2 2 2 1 1 1 1 1 2 3 2 1 3 6 7 8 8 8 8
9 10 11 11 10 8 7 6 5 4 3 2 2 1 1 1 1 1 1 1 1 2 1 1 2 2 2 2 1 1 1 1 2 2 1 2 3 7 8 8 8 8 8
9 10 11 12 10 9 7 6 5 3 2 1 1 0 1 2 2 3 3 3 3 3 3 3 3 3 3 3 3 2 3 3 2 2 0 3 5 8 9 9 8 8 8
9 9 11 12 11 9 8 6 5 4 2 1 0 1 2 3 4 4 4 5 5 5 5 4 5 4 5 5 4 4 4 4 3 1 1 4 7 9 9 9 9 9 9
10 8 10 12 11 9 8 6 5 3 2 1 2 3 3 4 5 6 6 6 6 6 6 6 6 6 6 6 6 6 6 5 3 2 2 5 8 10 10 9 9 9 9
8 7 7 9 9 9 8 7 5 4 3 3 3 4 5 5 6 7 7 7 7 7 7 7 7 7 8 7 7 7 8 6 3 2 3 4 8 10 10 10 10 9 9
7 7 6 7 7 7 7 7 6 4 3 3 4 6 6 7 7 7 8 8 8 9 8 8 8 9 9 8 8 9 8 6 4 3 3 5 9 11 11 11 10 10 9
6 5 5 4 5 6 7 6 5 5 4 3 4 6 6 5 6 7 7 7 8 8 8 8 9 9 9 9 9 9 8 4 4 4 4 7 10 12 11 11 11 11 10
6 5 5 5 5 5 4 3 3 3 3 3 4 5 4 4 5 4 5 6 7 7 8 8 8 8 7 5 7 8 5 4 4 4 5 8 11 12 12 12 12 11 11
7 6 6 6 5 4 2 2 1 0 1 2 3 2 2 3 3 3 3 4 4 4 4 5 5 4 3 3 4 4 4 4 4 4 6 9 11 12 12 12 12 11 12
7 7 6 6 5 4 3 1 1 1 1 0 2 3 2 2 2 2 2 2 2 2 2 2 2 2 3 3 4 3 3 3 4 4 5 8 10 12 13 12 12 12 12
8 7 7 7 6 4 3 2 2 1 1 1 3 5 3 1 2 2 2 2 2 2 1 1 1 1 2 2 2 3 3 4 3 4 4 8 10 11 12 13 13 12 12
9 8 6 7 6 6 4 3 2 2 2 3 4 5 5 3 2 2 2 3 2 2 1 1 1 1 1 1 1 2 2 2 3 3 4 6 8 9 10 11 12 12 12
10 8 7 7 7 6 5 3 3 3 4 3 3 6 6 5 3 2 2 3 3 3 3 2 2 1 1 1 1 1 2 2 3 2 3 3 5 8 10 10 11 11 12
10 8 7 8 7 6 4 4 2 3 3 2 3 5 6 6 5 3 3 3 3 3 2 2 2 2 2 1 1 1 1 1 2 2 2 2 2 4 7 10 11 11 12
11 9 8 8 7 6 5 4 3 3 3 2 3 3 4 5 6 3 2 2 3 3 3 2 2 1 1 1 1 1 1 1 1 1 2 1 2 2 4 7 10 10 10
10 9 9 8 7 6 5 4 3 3 2 1 1 2 3 4 5 4 2 3 3 3 3 2 2 1 1 1 1 1 0 0 0 1 2 1 1 2 3 4 5 8 10
10 9 9 8 6 5 3 3 2 1 0 0 0 1 2 3 4 3 3 3 3 2 2 2 1 2 2 2 2 2 3 1 0 1 1 1 1 1 3 3 4 5 7
11 10 9 9 7 6 4 3 3 2 1 1 1 1 1 1 2 2 3 2 2 2 3 3 2 1 2 2 2 2 2 3 2 1 0 1 1 1 1 2 3 4 5
11 11 11 9 8 7 5 4 3 3 2 2 1 2 2 1 1 2 2 2 2 2 2 2 2 2 2 2 2 3 3 1 1 2 2 2 1 0 0 1 2 4 5
11 10 10 9 8 7 6 5 5 3 2 3 2 2 2 1 1 1 1 2 2 2 1 2 2 1 2 2 2 2 2 2 2 1 2 2 1 1 0 1 1 2 4
10 10 10 10 8 7 7 7 6 4 3 2 1 1 1 2 2 1 1 2 2 1 1 2 2 2 2 2 1 1 2 3 3 3 1 2 2 2 1 0 1 1 3
9 9 10 10 8 7 7 7 6 6 4 2 1 1 1 1 2 2 1 1 1 1 1 2 2 2 2 2 2 2 2 2 1 2 2 0 1 2 2 2 1 1 2
Wind_Direction
155 160 141 133 126 120 115 110 107 106 104 103 101 98 97 95 92 91 93 92 91 89 87 85 84 82 83 80 80 76 71 70 68 69 74 82 90 99 101 99 100 103 100
154 152 141 135 130 126 122 118 114 111 107 105 105 104 101 95 91 91 94 94 97 96 93 92 92 91 91 88 84 80 72 64 62 59 60 74 99 114 113 108 108 114 107
142 143 139 135 131 127 123 118 118 119 115 108 104 100 98 95 96 96 96 100 103 106 107 107 106 108 107 108 105 90 68 46 40 31 36 97 141 141 130 121 116 117 113
142 143 139 134 128 124 121 118 116 117 113 106 99 94 83 77 83 95 115 122 139 140 139 145 152 147 147 139 131 121 54 10 11 11 33 160 167 151 144 135 129 124 118
136 140 141 134 129 125 122 118 115 110 105 98 87 76 48 8 335 285 248 233 224 212 193 191 194 193 195 202 201 209 265 307 345 9 11 161 159 160 151 145 136 130 127
140 144 144 139 136 134 132 128 123 116 110 100 83 345 298 296 294 288 266 253 248 239 225 223 226 220 218 227 233 245 266 278 304 338 307 182 175 168 156 150 144 139 136
148 152 153 147 145 144 142 137 132 132 130 117 348 300 291 286 285 279 273 262 257 250 241 236 237 232 225 233 242 248 257 272 270 284 238 194 181 172 163 155 151 150 146
154 159 159 158 156 156 154 153 156 162 174 214 277 289 292 287 283 280 271 262 257 254 252 247 242 240 237 238 247 250 251 262 270 290 251 200 183 172 165 160 157 157 155
152 155 166 171 169 166 167 172 178 193 214 241 272 284 289 289 285 283 276 265 257 256 257 256 252 250 246 243 248 252 251 252 260 267 249 209 189 176 172 168 165 162 158
155 160 171 179 175 174 183 191 194 209 228 254 276 284 287 289 292 289 281 266 257 256 259 261 258 255 250 247 249 249 249 252 251 258 252 225 196 180 178 174 168 166 163
162 168 172 170 173 183 198 211 213 225 242 272 292 295 298 296 296 291 283 267 261 258 261 263 262 259 255 252 250 252 252 239 241 250 246 227 200 185 180 177 173 172 171
167 169 160 155 160 170 190 194 224 238 261 285 290 297 304 298 300 302 291 277 271 267 269 266 266 264 259 252 254 255 248 243 244 242 238 224 203 191 184 180 178 177 174
164 152 143 151 153 152 157 162 182 234 259 280 292 309 318 334 332 339 327 318 316 298 289 287 293 280 254 239 238 240 236 233 245 243 233 221 207 193 184 179 177 178 175
153 147 141 140 139 139 119 109 133 128 159 324 337 357 3 352 341 337 333 323 324 315 298 293 281 268 254 244 232 233 233 228 240 235 230 220 211 197 186 183 182 179 178
151 150 145 138 131 124 101 87 93 104 91 53 26 21 30 22 352 349 347 339 338 343 320 300 287 268 253 248 234 229 225 216 223 230 230 225 212 201 192 188 184 180 180
156 153 142 127 128 120 107 102 106 96 87 66 44 37 41 42 23 13 358 352 339 338 332 311 311 261 245 235 255 245 233 205 213 226 231 232 214 204 199 195 189 185 183
159 151 141 132 127 120 115 108 105 100 96 74 51 44 43 39 33 29 15 356 339 345 354 3 358 4 347 346 277 255 236 214 208 216 232 234 220 213 209 202 196 191 188
154 151 148 134 130 126 119 108 102 104 97 76 64 52 41 36 38 39 23 353 344 10 13 11 356 359 348 338 288 265 252 225 201 202 219 233 220 212 213 207 201 196 193
155 149 138 132 137 130 113 102 92 89 88 91 79 58 40 37 41 47 27 355 4 18 11 359 16 14 328 323 263 243 250 204 226 229 219 202 206 210 210 210 204 200 199
153 145 138 137 139 125 104 94 76 68 66 78 80 66 50 36 37 43 31 9 16 26 5 0 356 355 324 311 311 355 336 193 216 243 223 177 201 214 198 197 197 202 205
148 145 147 143 145 128 114 117 114 115 149 56 305 80 63 45 39 52 33 18 20 30 6 356 6 9 358 7 48 21 24 45 190 229 221 180 197 201 177 179 186 191 205
158 157 154 152 150 143 144 153 160 164 198 218 294 326 34 48 32 50 49 35 20 29 22 11 34 36 6 35 85 80 35 9 357 27 89 166 198 159 172 184 184 189 193
162 164 163 161 154 152 143 120 89 64 42 25 349 302 293 267 47 46 49 52 35 50 30 8 43 77 34 4 53 108 117 181 325 357 21 48 48 99 175 175 175 179 185
172 164 158 159 155 154 145 137 137 142 170 221 231 256 287 255 252 2 43 51 38 32 26 359 56 82 91 38 2 35 106 153 124 47 0 11 35 62 86 174 174 160 171
165 159 159 155 156 160 154 149 146 159 196 223 245 255 287 292 288 300 35 50 35 24 16 18 39 58 90 98 65 41 49 48 65 114 70 353 359 356 5 106 148 148 158
159 156 155 156 165 168 162 159 161 173 185 185 213 235 268 282 298 292 310 41 32 15 12 20 38 58 76 90 85 77 90 89 77 100 108 34 351 332 352 16 62 117 135
Height
1520 1520 1521 1521 1522 1522 1522 1523 1523 1523 1523 1523 1523 1523 1523 1523 1523 1523 1523 1524 1524 1524 1524 1523 1523 1523 1523 1523 1522 1522 1522 1522 1522 1521 1521 1521 1521 1521 1521 1521 1521 1521 1520
1519 1520 1521 1521 1522 1522 1522 1522 1522 1522 1523 1523 1523 1523 1523 1523 1523 1523 1523 1523 1523 1523 1523 1523 1523 1523 1523 1522 1522 1522 1522 1522 1522 1521 1521 1521 1521 1521 1522 1522 1522 1522 1521
1519 1520 1521 1521 1522 1522 1522 1522 1522 1522 1522 1522 1522 1522 1522 1522 1522 1522 1522 1522 1522 1522 1522 1522 1522 1522 1522 1522 1522 1522 1522 1522 1521 1521 1521 1521 1521 1521 1522 1522 1522 1522 1522
1520 1520 1521 1521 1521 1521 1521 1521 1521 1521 1521 1521 1521 1521 1520 1521 1521 1521 1521 1521 1521 1521 1521 1521 1521 1521 1521 1521 1521 1521 1521 1521 1521 1521 1521 1521 1521 1522 1522 1522 1522 1523 1523
1520 1521 1521 1521 1521 1521 1521 1520 1520 1520 1520 1519 1519 1519 1519 1519 1519 1519 1519 1519 1519 1519 1520 1520 1520 1520 1520 1520 1520 1521 1521 1521 1521 1521 1521 1521 1521 1521 1521 1522 1522 1523 1523
1520 1521 1521 1521 1521 1520 1520 1520 1519 1519 1518 1518 1518 1517 1517 1517 1517 1517 1517 1517 1517 1518 1518 1518 1518 1519 1519 1519 1519 1520 1520 1520 1520 1520 1520 1520 1520 1521 1521 1521 1522 1523 1523
1520 1521 1521 1521 1520 1520 1519 1519 1518 1517 1517 1516 1516 1515 1515 1515 1515 1515 1515 1515 1515 1516 1516 1516 1517 1517 1517 1518 1518 1518 1519 1519 1520 1520 1520 1520 1520 1520 1521 1521 1522 1523 1523
1520 1521 1521 1521 1520 1520 1519 1518 1517 1517 1516 1515 1514 1514 1513 1513 1513 1513 1513 1513 1513 1513 1514 1514 1514 1515 1515 1516 1516 1517 1518 1518 1518 1519 1519 1519 1519 1520 1520 1521 1522 1522 1523
1520 1521 1521 1520 1520 1519 1519 1518 1517 1516 1515 1514 1513 1512 1512 1511 1511 1511 1511 1511 1511 1511 1511 1511 1512 1513 1513 1514 1514 1515 1516 1517 1517 1517 1518 1518 1519 1519 1520 1520 1521 1522 1523
1520 1520 1520 1520 1519 1519 1518 1518 1517 1516 1515 1514 1513 1512 1511 1510 1510 1509 1509 1509 1508 1508 1509 1509 1509 1510 1511 1511 1512 1513 1514 1515 1516 1516 1517 1517 1518 1519 1519 1520 1521 1522 1523
1520 1520 1520 1519 1519 1518 1518 1517 1516 1515 1514 1513 1512 1511 1510 1509 1508 1508 1507 1507 1507 1506 1506 1506 1507 1507 1508 1509 1510 1511 1512 1513 1514 1515 1515 1516 1517 1518 1518 1519 1520 1521 1523
1519 1519 1519 1519 1518 1518 1517 1517 1516 1515 1514 1513 1512 1511 1509 1508 1508 1507 1506 1505 1505 1505 1504 1504 1505 1505 1506 1506 1508 1509 1510 1511 1512 1513 1514 1515 1516 1517 1517 1518 1519 1520 1522
1518 1518 1518 1518 1517 1517 1517 1516 1515 1514 1513 1512 1511 1510 1509 1508 1507 1506 1505 1504 1503 1503 1503 1503 1503 1503 1503 1504 1505 1507 1508 1509 1510 1511 1513 1514 1515 1516 1517 1517 1518 1520 1521
1517 1517 1517 1517 1517 1516 1516 1515 1514 1514 1513 1512 1511 1509 1508 1507 1506 1504 1503 1503 1502 1502 1501 1501 1501 1501 1502 1502 1503 1505 1506 1507 1508 1510 1511 1512 1513 1515 1516 1517 1518 1519 1521
1516 1517 1517 1516 1516 1516 1515 1514 1514 1513 1512 1511 1510 1509 1507 1506 1505 1504 1502 1502 1501 1500 1500 1500 1500 1500 1500 1501 1501 1502 1503 1505 1506 1508 1509 1511 1512 1513 1515 1516 1517 1518 1520
1515 1515 1516 1515 1515 1515 1514 1513 1513 1512 1511 1511 1509 1508 1506 1505 1504 1503 1501 1500 1499 1499 1498 1498 1498 1498 1499 1499 1500 1501 1502 1503 1504 1506 1507 1509 1511 1512 1513 1515 1516 1518 1519
1513 1514 1514 1514 1514 1514 1513 1512 1512 1511 1511 1510 1508 1507 1505 1504 1503 1502 1500 1499 1498 1498 1497 1497 1496 1497 1497 1497 1498 1499 1500 1501 1503 1504 1506 1508 1509 1511 1512 1514 1515 1517 1518
1512 1512 1513 1513 1513 1513 1512 1511 1511 1511 1510 1509 1507 1506 1504 1503 1502 1500 1499 1498 1497 1496 1496 1495 1495 1495 1495 1496 1496 1497 1498 1500 1502 1503 1504 1506 1508 1509 1511 1513 1514 1516 1517
1510 1511 1511 1512 1512 1512 1511 1511 1510 1510 1509 1508 1507 1505 1504 1502 1501 1499 1498 1497 1497 1495 1495 1494 1494 1494 1494 1495 1495 1496 1497 1498 1500 1501 1503 1504 1506 1508 1510 1511 1513 1515 1516
1509 1510 1510 1510 1511 1510 1510 1510 1510 1509 1508 1507 1506 1505 1503 1501 1500 1499 1498 1497 1496 1495 1494 1493 1493 1493 1493 1494 1494 1495 1496 1497 1499 1500 1502 1503 1505 1507 1508 1510 1512 1513 1515
1507 1508 1509 1509 1509 1509 1509 1509 1509 1508 1507 1507 1505 1504 1503 1501 1500 1499 1498 1496 1495 1494 1493 1492 1492 1492 1492 1493 1493 1494 1495 1496 1498 1499 1501 1502 1504 1506 1507 1509 1511 1512 1514
1505 1506 1507 1507 1508 1508 1508 1508 1508 1507 1507 1506 1505 1504 1503 1501 1500 1499 1497 1496 1495 1494 1493 1492 1491 1492 1492 1492 1493 1494 1495 1497 1497 1498 1499 1501 1503 1504 1506 1508 1510 1512 1513
1504 1504 1505 1506 1506 1507 1507 1507 1507 1506 1506 1505 1505 1504 1503 1501 1500 1499 1497 1496 1495 1494 1492 1492 1491 1492 1492 1492 1493 1494 1494 1495 1496 1498 1499 1500 1501 1503 1505 1507 1508 1510 1512
1502 1503 1504 1504 1505 1505 1506 1505 1505 1505 1505 1505 1504 1503 1502 1501 1500 1499 1498 1496 1495 1494 1493 1492 1492 1492 1492 1492 1493 1493 1495 1495 1496 1497 1499 1500 1501 1503 1504 1506 1507 1509 1511
1500 1501 1502 1503 1503 1504 1504 1504 1504 1504 1504 1504 1504 1503 1502 1501 1500 1499 1498 1497 1495 1494 1493 1492 1492 1492 1492 1493 1493 1494 1494 1495 1496 1497 1498 1500 1501 1502 1503 1505 1506 1508 1510
1499 1500 1500 1501 1502 1502 1503 1503 1503 1503 1503 1503 1503 1503 1502 1501 1500 1499 1498 1497 1496 1495 1494 1493 1493 1493 1493 1493 1493 1494 1494 1495 1495 1496 1497 1499 1500 1502 1503 1504 1505 1507 1508